Retour au catalogue

ENVISAT

ActifScienceSSO
NORAD 27386·PAYLOAD·🇪🇺 EU

Lancé Mar 1, 2002 depuis Guiana Space Centre

Loading…

Prochains Passages (prochaines 24 heures)

TLE

FraisSource: Space-Track

Époque: Sep 14, 2026, 14:47 UTC

1 27386U 02009A   26257.61604682  .00000054  00000-0  31385-4 0  9995
2 27386  98.3920 206.9730 0001189  91.0151  82.0843 14.39082012286340

Suivez ENVISAT en temps réel avec AllMySat

Download on the App Store